Location: *
(52.2090°N, 4.1550°W)
Time: 01:13:12
(UTC+00:00)

NOSS 2-3 (E) - Pass Details

Date: 19 July 2019
Orbit: 595 x 1616 km, 63.4° (Epoch: 23 August)

Event Time Altitude Azimuth Distance (km) Brightness Sun altitude
Exits shadow 22:56:20 22° 178° (S) 1,405 4.8 -14.6°
Maximum altitude 22:58:44 40° 122° (ESE) 1,018 4.3 -14.8°
Drops below altitude 10° 23:03:41 10° 54° (NE) 2,389 6.8 -15.0°
Sets 23:06:31 0° 48° (NE) 3,482 7.7 -15.1°
